You are listening to:
LKPR Approach - Prague, Czech Republic

LKPR 171930Z 17006KT 120V190 CAVOK 20/15 Q1022 NOSIG

If stream doesn't start automatically press the play button
If stream stops then reload player then press play